This is the latest recevied weather packets stored in our database for station/object M0JUI-1. If no packets are shown the sender has not sent any weather packets the latest 10 day(s).
| Time | Temp. | Humidity | Pressure | Rain* | Wind** | Luminosity | Snow |
|---|---|---|---|---|---|---|---|
| 1777553714 | 20° C | 56% | 1022 hPa | 0 mm | - | 655 W/m² | - |
| 1777553415 | 20° C | 56% | 1022 hPa | 0 mm | - | 656 W/m² | - |
| 1777553114 | 20° C | 56% | 1022.1 hPa | 0 mm | - | 650 W/m² | - |
| 1777552816 | 19.44° C | 58% | 1022.2 hPa | 0 mm | - | 647 W/m² | - |
| 1777552502 | 19.44° C | 58% | 1022.3 hPa | 0 mm | - | 649 W/m² | - |
| 1777552202 | 19.44° C | 58% | 1022.3 hPa | 0 mm | - | 661 W/m² | - |
| 1777551903 | 19.44° C | 59% | 1022.4 hPa | 0 mm | - | 656 W/m² | - |
| 1777551590 | 19.44° C | 59% | 1022.6 hPa | 0 mm | - | 639 W/m² | - |
| 1777551290 | 19.44° C | 59% | 1022.3 hPa | 0 mm | - | 631 W/m² | - |
| 1777550990 | 19.44° C | 60% | 1022.4 hPa | 0 mm | - | 617 W/m² | - |
| 1777550666 | 19.44° C | 59% | 1022.6 hPa | 0 mm | - | 620 W/m² | - |
| 1777550366 | 18.89° C | 62% | 1022.4 hPa | 0 mm | - | 628 W/m² | - |
| 1777550054 | 18.89° C | 63% | 1022.6 hPa | 0 mm | - | 614 W/m² | - |
| 1777549754 | 18.89° C | 63% | 1022.8 hPa | 0 mm | - | 628 W/m² | - |
| 1777549454 | 18.89° C | 63% | 1023 hPa | 0 mm | - | 647 W/m² | - |
| 1777549155 | 18.33° C | 63% | 1022.9 hPa | 0 mm | - | 642 W/m² | - |
| 1777548855 | 18.33° C | 63% | 1022.7 hPa | 0 mm | - | 655 W/m² | - |
| 1777548555 | 18.33° C | 63% | 1022.7 hPa | 0 mm | - | 645 W/m² | - |
| 1777548254 | 18.33° C | 65% | 1022.7 hPa | 0 mm | - | 644 W/m² | - |
| 1777547954 | 17.78° C | 66% | 1023 hPa | 0 mm | - | 628 W/m² | - |
| 1777547654 | 18.33° C | 65% | 1023 hPa | 0 mm | - | 623 W/m² | - |
| 1777547354 | 18.33° C | 65% | 1022.9 hPa | 0 mm | - | 613 W/m² | - |
| 1777547054 | 17.78° C | 65% | 1022.7 hPa | 0 mm | - | 600 W/m² | - |
| 1777546742 | 17.78° C | 66% | 1023 hPa | 0 mm | - | 605 W/m² | - |
| 1777546443 | 17.78° C | 66% | 1022.9 hPa | 0 mm | - | 639 W/m² | - |
* Rain latest hour (hover to see other rain measurements)
** Current wind speed in m/s (hover to see current wind gust speed)